Weather Roundup
Issued by NWS Chicago, IL

Home | Current Version | Previous Version | Graphics & Text | Print | Product List | Glossary On
Versions: 1 2 3 4 5 6 7 8 9 10 11 12 13 14 15 16 17 18 19 20 21 22 23 24 25 26 27 28 29 30 31 32 33 34 35 36 37 38 39 40 41 42 43 44 45 46 47 48 49 50
000
NZUS59 KLOT 311806
HRRLOT

CHICAGO AREA WEATHER ROUNDUP
NATIONAL WEATHER SERVICE CHICAGO/ROMEOVILLE IL
1200 PM CST SAT JAN 31 2015

NOTE: "FAIR" INDICATES FEW OR NO CLOUDS BELOW 12,000 FEET WITH NO
SIGNIFICANT WEATHER AND/OR OBSTRUCTIONS TO VISIBILITY.

* THESE STATIONS ARE NOT UNDER NWS QUALITY CONTROL. THEY ALSO MAY NOT
  REPORT WEATHER SUCH AS PRECIPITATION OR FOG.

ILZ005-006-012>014-019>023-311900-
NORTHEAST ILLINOIS

CITY           SKY/WX    TMP DP  RH WIND       PRES   REMARKS
OHARE          PTSUNNY   35  23  61 W13       30.18F WCI  26
6HR MIN TEMP:  24; 6HR MAX TEMP:  35;

MIDWAY         PTSUNNY   37  24  59 SW13      30.20F
6HR MIN TEMP:  26; 6HR MAX TEMP:  37;

AURORA         CLOUDY    35  24  64 W14       30.20F WCI  26
6HR MIN TEMP:  22; 6HR MAX TEMP:  35;

LANSING*       CLOUDY    37  26  63 SW13      30.21F
JOLIET*        PTSUNNY   36  25  65 SW8       30.22F
WAUKEGAN       MOSUNNY   35  21  56 VRB7      30.17F WCI  29
6HR MIN TEMP:  22; 6HR MAX TEMP:  35;

DUPAGE AIRPORT CLOUDY    33  23  66 SW10      30.19F WCI  25
6HR MIN TEMP:  19; 6HR MAX TEMP:  33;

WHEELING       MOSUNNY   36  22  56 W12       30.19F
6HR MIN TEMP:  24; 6HR MAX TEMP:  36;

KANKAKEE*      PTSUNNY   37  29  73 SW10      30.24F
MORRIS*        PTSUNNY   36  29  76 W12       30.21F
LEWIS AIRPORT* PTSUNNY   36  25  64 W16       30.21F
NORTHERLY IS     N/A     36  22  57 W7          N/A
$$

WIZ051-052-058>065-066-070>072-311900-
SOUTHEAST WISCONSIN

CITY           SKY/WX    TMP DP  RH WIND       PRES   REMARKS
MILWAUKEE      PTSUNNY   34  19  54 W9        30.17S WCI  27
6HR MIN TEMP:  23; 6HR MAX TEMP:  34;

KENOSHA*       MOSUNNY   35  22  58 W12       30.17F WCI  27
RACINE*        MOSUNNY   34  20  56 W7        30.19S WCI  28
BURLINGTON     MOSUNNY   32  20  63 W9        30.17S WCI  24
WAUKESHA       PTSUNNY   30  19  64 W9        30.17F WCI  22
$$

INZ001>003-010>013-019-020-311900-
NORTHWEST INDIANA

CITY           SKY/WX    TMP DP  RH WIND       PRES   REMARKS
GARY*          PTSUNNY   36  19  51 S9        30.23
MICHIGAN CITY* NOT AVBL
RENSSELAER*    NOT AVBL
VALPARAISO     CLOUDY    35  23  61 SW10      30.21F WCI  27
$$

LMZ740>746-311900-
SOUTHERN LAKE MICHIGAN

STATION/POSITION TIME  SKY/WX   TEMP WIND        PRES    VSBY
                                AIR  DIR/SP/G
                 (UTC)          (F)  (DEG/KT/KT) (MB)    (MI)
HARRISON CRIB    1800            35  250/ 12/ 16   N/A
BURNHAM HARBOR   1800            36  260/  9/ 16   N/A
CALUMET HARBOR   1700            36  230/  8/ 15   N/A
BURNS HARBOR     NOT AVBL
MICHIGAN CITY    1800            35  190/ 12/ 15   N/A
$$

ABBREVIATIONS USED IN REMARKS
   TC - TEMPERATURE IN CELSIUS
  WCI - WIND CHILL INDEX
   HX - HEAT INDEX
  VSB - VISIBILITY
$$


USA.gov is the U.S. government's official web portal to all federal, state and local government web resources and services.